Wind_Speed
78 79 80 82 82 83 84 84 84 84 84 85 87 89 91 91 91 91 91 90 87 87 89 88 85 85 83
80 82 82 84 85 85 86 86 87 88 89 90 90 90 90 91 92 93 93 92 91 91 93 92 91 90 88
76 79 80 80 82 84 87 89 89 90 91 92 93 93 94 95 96 97 99 99 97 97 96 96 96 96 95
77 78 79 81 82 83 84 86 88 90 90 91 93 93 95 97 97 98 99 100 100 100 101 100 99 98 100
79 81 81 81 82 84 85 85 87 88 90 92 94 95 98 100 101 102 103 103 103 103 104 104 105 104 103
73 75 75 76 76 77 78 79 79 85 87 87 91 92 95 99 102 105 108 109 109 110 109 109 109 109 109
65 67 69 73 75 76 78 80 81 84 86 84 90 92 95 97 100 103 106 108 111 113 114 116 116 115 115
67 70 73 75 78 81 81 80 81 83 84 81 80 80 85 89 91 94 99 104 109 113 117 121 122 123 123
71 73 74 75 76 79 79 78 74 70 68 70 66 66 68 70 72 75 80 85 92 98 106 115 124 128 128
69 69 66 65 66 67 65 63 60 56 56 58 58 64 63 61 65 70 76 80 84 87 91 95 101 110 120
57 53 53 54 54 55 54 53 50 49 52 55 56 60 62 61 63 66 70 72 76 79 80 82 84 90 96
45 46 48 50 51 51 51 50 48 46 50 53 54 58 61 61 59 60 63 65 68 70 73 76 77 77 82
45 46 47 48 48 50 50 48 47 48 51 52 53 55 57 57 57 57 57 56 60 65 69 71 67 65 67
42 44 45 45 45 46 45 47 48 48 50 50 51 54 53 54 55 52 51 50 53 58 60 59 56 56 59
35 37 40 41 42 41 42 44 45 45 46 47 49 50 50 49 50 49 46 46 49 49 49 50 49 47 50
33 34 35 37 37 38 40 42 42 43 43 45 46 46 47 45 46 45 45 43 42 43 44 46 43 41 45
28 30 31 33 34 35 37 39 40 41 41 43 43 43 43 42 41 45 43 40 40 40 41 43 42 39 43
Wind_Direction
263 263 263 261 261 260 259 258 258 257 254 251 249 248 248 248 248 249 248 248 249 249 249 249 251 252 252
262 262 262 263 262 262 261 259 259 258 257 256 255 252 250 249 248 249 249 249 249 249 247 246 247 249 251
261 259 259 258 258 257 257 257 256 255 254 253 253 252 252 252 250 249 249 249 249 248 248 247 246 246 247
258 256 255 256 257 255 255 255 254 254 253 253 253 253 252 251 252 251 250 249 249 248 247 246 245 246 246
256 256 256 255 255 254 253 253 253 253 253 254 254 254 254 253 252 251 251 251 251 250 248 247 246 245 245
258 258 258 257 256 256 255 254 254 255 254 255 256 255 255 255 255 254 253 252 251 250 249 248 247 246 245
262 261 260 260 260 259 259 259 259 260 260 258 260 259 259 258 257 257 256 254 253 251 249 248 246 245 244
260 259 260 261 262 262 261 261 261 261 262 260 259 259 260 261 261 261 260 260 259 257 254 251 249 247 243
263 263 263 262 261 262 262 262 261 260 259 260 260 262 262 263 265 265 265 263 261 259 257 255 252 249 246
263 263 262 260 260 260 258 257 257 255 258 263 262 266 266 269 268 267 267 267 265 264 263 259 255 252 248
261 259 258 257 256 257 257 256 256 255 261 266 267 268 271 269 272 273 271 269 269 268 266 262 259 257 253
257 256 256 257 258 258 259 259 255 257 266 272 271 272 274 276 277 272 270 269 268 267 267 266 264 258 253
256 255 255 256 258 260 258 255 257 264 270 276 275 276 279 280 277 273 272 267 268 269 269 267 261 252 246
258 257 257 254 256 256 254 256 260 267 273 275 276 279 280 279 278 278 274 271 271 274 273 265 257 252 248
262 260 257 255 254 252 252 257 263 269 273 274 277 281 281 280 280 280 275 275 276 276 269 262 256 253 246
267 264 258 253 250 251 254 260 266 270 272 274 277 281 281 280 282 280 276 276 276 272 265 260 255 248 241
274 268 262 257 254 255 259 264 267 269 271 274 279 280 279 279 278 283 279 276 275 269 262 258 254 243 237
Height
5580 5582 5586 5589 5592 5596 5599 5604 5607 5612 5618 5624 5629 5634 5638 5643 5648 5653 5658 5665 5671 5677 5684 5689 5694 5700 5709
5556 5559 5563 5564 5567 5571 5574 5578 5582 5586 5592 5597 5601 5606 5612 5618 5623 5627 5633 5639 5646 5653 5659 5670 5673 5679 5685
5534 5534 5536 5538 5544 5546 5547 5551 5556 5560 5564 5569 5573 5579 5584 5589 5594 5600 5605 5612 5622 5626 5633 5641 5648 5657 5664
5509 5509 5511 5511 5517 5519 5524 5527 5531 5533 5538 5542 5546 5552 5557 5559 5566 5571 5576 5583 5590 5597 5604 5612 5620 5629 5638
5484 5484 5487 5486 5488 5491 5498 5499 5504 5507 5510 5512 5521 5525 5526 5528 5533 5538 5545 5551 5558 5566 5574 5582 5590 5599 5609
5459 5461 5463 5463 5463 5466 5471 5475 5482 5477 5481 5491 5489 5495 5494 5495 5499 5505 5511 5518 5525 5531 5539 5547 5556 5566 5576
5438 5439 5438 5439 5440 5441 5442 5450 5455 5451 5453 5468 5457 5465 5461 5465 5469 5473 5477 5482 5487 5493 5500 5508 5517 5528 5539
5416 5415 5415 5417 5417 5415 5418 5425 5429 5425 5424 5441 5425 5435 5431 5435 5438 5438 5440 5443 5448 5454 5460 5467 5476 5486 5498
5392 5392 5394 5394 5391 5389 5395 5398 5406 5401 5399 5408 5408 5406 5407 5413 5412 5409 5407 5408 5410 5412 5416 5422 5430 5440 5452
5369 5370 5369 5368 5367 5368 5371 5376 5381 5384 5382 5383 5386 5380 5386 5391 5388 5386 5380 5380 5379 5378 5377 5380 5386 5389 5400
5348 5348 5348 5348 5349 5350 5353 5358 5364 5368 5365 5364 5367 5363 5362 5370 5368 5364 5358 5356 5350 5348 5348 5349 5352 5352 5357
5331 5332 5332 5332 5333 5335 5338 5341 5346 5350 5348 5346 5348 5343 5342 5346 5348 5341 5334 5332 5325 5323 5321 5322 5322 5323 5324
5315 5317 5318 5319 5320 5321 5323 5326 5330 5333 5331 5329 5327 5324 5321 5322 5321 5320 5314 5313 5307 5300 5297 5294 5293 5293 5297
5301 5302 5303 5305 5307 5306 5310 5312 5316 5317 5315 5313 5310 5306 5305 5302 5299 5299 5294 5291 5286 5279 5273 5270 5270 5273 5276
5288 5289 5289 5291 5293 5294 5297 5299 5301 5302 5300 5297 5294 5290 5286 5284 5281 5278 5275 5271 5267 5262 5254 5253 5256 5257 5260
5275 5275 5276 5278 5280 5281 5283 5285 5287 5286 5285 5282 5278 5275 5271 5269 5264 5261 5258 5255 5251 5246 5242 5240 5243 5245 5247
5264 5264 5264 5266 5267 5269 5270 5271 5272 5272 5270 5268 5264 5261 5258 5256 5253 5245 5243 5241 5237 5234 5231 5230 5230 5234 5236